Weather History for Albuquerque Double Eagle, NM

Change the Weather History Date:

Friday, January 18, 2013

  Actual Average Record
Temperature  
Mean Temperature 32 °F -  
Max Temperature 48 °F - - ()
Min Temperature 15 °F - - ()
Degree Days  
Heating Degree Days 34    
Moisture  
Dew Point 10 °F    
Average Humidity 51    
Maximum Humidity 68    
Minimum Humidity 25    
Precipitation  
Precipitation 0.00 in - - ()
Sea Level Pressure  
Sea Level Pressure 30.34 in    
Wind  
Wind Speed 2 mph (NNW)    
Max Wind Speed 13 mph    
Max Gust Speed -    
Visibility 10 miles    
Events      
T = Trace of Precipitation, MM = Missing Value Source: NWS Daily Summary

Daily Weather History Graph

Daily Weather History Graph

Search for Another Location

Airport:

Trip Planner

Search our weather history database for the weather conditions in past years. The results will help you decide how hot, cold, wet, or windy it might be!

Date:

Astronomy

Jan. 18, 2013 Rise Set
Actual Time 7:13 AM MST 5:21 PM MST
Civil Twilight 6:46 AM MST 5:49 PM MST
Nautical Twilight 6:15 AM MST 6:20 PM MST
Astronomical Twilight 5:45 AM MST 6:50 PM MST
Moon 11:12 AM MST (1/18) No Moon Set
Length of Visible Light 11h 02m
Length of Day
10h 07m
Waxing Crescent, 48% of the Moon is Illuminated
Jan 18
Waxing Crescent
Jan 18
First Quarter
Jan 26
Full
Feb 3
Last Quarter
Feb 10
New

Hourly Weather History & Observations

Time (MST) Temp. Windchill Dew Point Humidity Pressure Visibility Wind Dir Wind Speed Gust Speed Precip Events Conditions
12:15 AM 17.6 °F - 3.2 °F 53% 30.40 in 10.0 mi Calm Calm - N/A   Clear
12:35 AM 19.4 °F - 5.0 °F 54% 30.40 in 10.0 mi Calm Calm - N/A   Clear
12:55 AM 19.4 °F - 5.0 °F 54% 30.39 in 10.0 mi Calm Calm - N/A   Clear
1:15 AM 19.4 °F - 5.0 °F 54% 30.39 in 10.0 mi Calm Calm - N/A   Clear
1:35 AM 21.2 °F - 6.8 °F 54% 30.40 in 10.0 mi Calm Calm - N/A   Clear
1:55 AM 19.4 °F - 5.0 °F 54% 30.40 in 10.0 mi Calm Calm - N/A   Clear
2:15 AM 17.6 °F - 5.0 °F 58% 30.40 in 10.0 mi Calm Calm - N/A   Clear
2:35 AM 19.4 °F - 6.8 °F 58% 30.39 in 10.0 mi Calm Calm - N/A   Clear
2:55 AM 17.6 °F - 6.8 °F 63% 30.39 in 10.0 mi Calm Calm - N/A   Clear
3:15 AM 17.6 °F - 6.8 °F 63% 30.38 in 10.0 mi Calm Calm - N/A   Clear
3:55 AM 19.4 °F 11.5 °F 8.6 °F 63% 30.37 in 10.0 mi NNW 5.8 mph - N/A   Clear
4:15 AM 19.4 °F - 8.6 °F 63% 30.37 in 10.0 mi Calm Calm - N/A   Clear
4:35 AM 19.4 °F - 8.6 °F 63% 30.36 in 10.0 mi Calm Calm - N/A   Clear
5:50 AM 15.8 °F - 6.8 °F 68% 30.36 in 10.0 mi Calm Calm - N/A   Clear
6:50 AM 15.8 °F - 6.8 °F 68% 30.36 in 10.0 mi Calm Calm - N/A   Clear
7:50 AM 15.8 °F - 6.8 °F 68% 30.37 in 10.0 mi Calm Calm - N/A   Clear
8:50 AM 28.4 °F - 14.0 °F 55% 30.39 in 10.0 mi Calm Calm - N/A   Clear
9:50 AM 33.8 °F - 14.0 °F 44% 30.40 in 10.0 mi Calm Calm - N/A   Clear
10:50 AM 37.4 °F - 14.0 °F 38% 30.38 in 10.0 mi Calm Calm - N/A   Clear
11:50 AM 39.2 °F - 15.8 °F 39% 30.35 in 10.0 mi Calm Calm - N/A   Clear
12:49 PM 42.8 °F - 15.8 °F 34% 30.31 in 10.0 mi Calm Calm - N/A   Clear
1:50 PM 46.4 °F - 14.0 °F 27% 30.29 in 10.0 mi Calm Calm - N/A   Clear
2:50 PM 46.4 °F - 14.0 °F 27% 30.27 in 10.0 mi Calm Calm - N/A   Clear
3:50 PM 48.2 °F - 14.0 °F 25% 30.26 in 10.0 mi NW 9.2 mph - N/A   Clear
4:50 PM 46.4 °F 42.9 °F 14.0 °F 27% 30.26 in 10.0 mi Variable 6.9 mph - N/A   Clear
5:50 PM 35.6 °F - 8.6 °F 33% 30.27 in 10.0 mi Calm Calm - N/A   Clear
6:50 PM 35.6 °F - 10.4 °F 35% 30.27 in 10.0 mi Calm Calm - N/A   Clear
9:15 PM 26.6 °F 18.2 °F 12.2 °F 55% 30.28 in 10.0 mi NNW 8.1 mph - N/A   Clear
9:35 PM 28.4 °F 21.2 °F 12.2 °F 51% 30.28 in 10.0 mi NNW 6.9 mph - N/A   Clear
9:55 PM 26.6 °F 18.2 °F 12.2 °F 55% 30.28 in 10.0 mi NNW 8.1 mph - N/A   Clear
10:15 PM 24.8 °F 16.9 °F 10.4 °F 54% 30.28 in 10.0 mi NW 6.9 mph - N/A   Clear
10:35 PM 23.0 °F 14.7 °F 8.6 °F 54% 30.28 in 10.0 mi NW 6.9 mph - N/A   Clear
10:55 PM 26.6 °F 16.2 °F 14.0 °F 59% 30.28 in 10.0 mi NNW 11.5 mph - N/A   Clear
11:15 PM 24.8 °F 13.4 °F 10.4 °F 54% 30.28 in 10.0 mi NNW 12.7 mph - N/A   Clear
11:35 PM 26.6 °F 15.7 °F 12.2 °F 55% 30.28 in 10.0 mi NNW 12.7 mph - N/A   Clear
11:55 PM 24.8 °F 13.4 °F 12.2 °F 59% 30.28 in 10.0 mi NNW 12.7 mph - N/A   Clear